When you browse on this site, cookies collect data to enhance your experience and personalize the content and advertising you see.
Visit our Privacy Policy to learn more. By continuing to use the site, you agree to this use of cookies and data.
  • In Austria
  • List of Countries
  • For 7 days
  • Water Temperature
  • Weather Map
  • News
  • Weather Widgets
  • user-avatar
    Login

    Hourly Weather Mixquiahuala

    Today, 10 December, Tuesday

    Time Temperature Precipitation Wind Pressure Humidity
    00:00 +15°C° 0 mm 1 mps 600 mmHg 50%
    01:00 +14°C° 0 mm 1 mps 600 mmHg 54%
    02:00 +14°C° 0 mm 1 mps 600 mmHg 58%
    03:00 +13°C° 0 mm 1 mps 599 mmHg 60%
    04:00 +13°C° 0 mm 1 mps 599 mmHg 63%
    05:00 +12°C° 0 mm 1 mps 599 mmHg 60%
    06:00 +14°C° 0 mm 1 mps 600 mmHg 55%
    07:00 +16°C° 0 mm 1 mps 601 mmHg 51%
    08:00 +18°C° 0 mm 1 mps 602 mmHg 46%
    09:00 +20°C° 0 mm 1 mps 603 mmHg 41%
    10:00 +22°C° 0 mm 1 mps 603 mmHg 36%
    11:00 +24°C° 0 mm 1 mps 604 mmHg 30%
    12:00 +25°C° 0 mm 1 mps 604 mmHg 27%
    13:00 +25°C° 0 mm 1 mps 604 mmHg 24%
    14:00 +26°C° 0 mm 1 mps 604 mmHg 21%
    15:00 +24°C° 0 mm 2 mps 603 mmHg 31%
    16:00 +21°C° 0 mm 3 mps 603 mmHg 42%
    17:00 +19°C° 0 mm 4 mps 602 mmHg 52%
    18:00 +18°C° 0 mm 4 mps 603 mmHg 64%
    19:00 +16°C° 0 mm 3 mps 603 mmHg 75%
    20:00 +14°C° 0 mm 3 mps 603 mmHg 86%
    21:00 +14°C° 0 mm 3 mps 603 mmHg 83%
    22:00 +13°C° 0 mm 3 mps 603 mmHg 81%
    23:00 +14°C° 0 mm 2 mps 604 mmHg 78%

    Tomorrow, 11 December, Wednesday

    Time Temperature Precipitation Wind Pressure Humidity
    00:00 +14°C° 0 mm 2 mps 603 mmHg 79%
    01:00 +14°C° 0 mm 2 mps 603 mmHg 80%
    02:00 +13°C° 0 mm 2 mps 603 mmHg 81%
    03:00 +13°C° 0 mm 2 mps 603 mmHg 83%
    04:00 +13°C° 0 mm 2 mps 603 mmHg 84%
    05:00 +13°C° 0 mm 2 mps 603 mmHg 86%
    06:00 +13°C° 0 mm 2 mps 604 mmHg 85%
    07:00 +13°C° 0 mm 2 mps 604 mmHg 84%
    08:00 +13°C° 0 mm 2 mps 605 mmHg 83%
    09:00 +13°C° 0 mm 3 mps 605 mmHg 78%
    10:00 +13°C° 0 mm 3 mps 605 mmHg 73%
    11:00 +14°C° 0 mm 3 mps 605 mmHg 69%
    12:00 +16°C° 0 mm 3 mps 605 mmHg 66%
    13:00 +16°C° 0 mm 3 mps 604 mmHg 64%
    14:00 +17°C° 0 mm 3 mps 604 mmHg 61%
    15:00 +14°C° 0 mm 3 mps 603 mmHg 67%
    16:00 +13°C° 0 mm 3 mps 603 mmHg 72%
    17:00 +12°C° 0 mm 3 mps 603 mmHg 77%
    18:00 +12°C° 0 mm 2 mps 603 mmHg 80%
    19:00 +12°C° 0 mm 2 mps 603 mmHg 82%
    20:00 +11°C° 0 mm 1 mps 603 mmHg 85%
    21:00 +11°C° 0 mm 1 mps 603 mmHg 86%
    22:00 +11°C° 0 mm 1 mps 603 mmHg 86%
    23:00 +10°C° 0 mm 0 mps 603 mmHg 86%

    Day after tomorrow, 12 December, Thursday

    Time Temperature Precipitation Wind Pressure Humidity
    00:00 +9°C° 0 mm 0 mps 602 mmHg 88%
    01:00 +10°C° 0 mm 1 mps 602 mmHg 89%
    02:00 +10°C° 0 mm 1 mps 602 mmHg 91%
    03:00 +10°C° 0 mm 1 mps 601 mmHg 90%
    04:00 +10°C° 0 mm 1 mps 601 mmHg 90%
    05:00 +10°C° 0 mm 1 mps 601 mmHg 89%
    06:00 +11°C° 0 mm 1 mps 602 mmHg 81%
    07:00 +13°C° 0 mm 1 mps 603 mmHg 73%
    08:00 +15°C° 0 mm 1 mps 604 mmHg 65%
    09:00 +18°C° 0 mm 1 mps 604 mmHg 56%
    10:00 +20°C° 0 mm 1 mps 605 mmHg 48%
    11:00 +22°C° 0 mm 1 mps 605 mmHg 40%
    12:00 +21°C° 0 mm 2 mps 605 mmHg 38%
    13:00 +22°C° 0 mm 3 mps 604 mmHg 35%
    14:00 +22°C° 0 mm 4 mps 604 mmHg 33%
    15:00 +21°C° 0 mm 3 mps 603 mmHg 38%
    16:00 +19°C° 0 mm 3 mps 603 mmHg 44%
    17:00 +18°C° 0 mm 2 mps 602 mmHg 49%
    18:00 +17°C° 0 mm 2 mps 602 mmHg 56%
    19:00 +16°C° 0 mm 1 mps 602 mmHg 63%
    20:00 +14°C° 0 mm 0 mps 602 mmHg 70%
    21:00 +14°C° 0 mm 0 mps 602 mmHg 70%
    22:00 +13°C° 0 mm 0 mps 602 mmHg 70%
    23:00 +13°C° 0 mm 0 mps 602 mmHg 70%

    13 December, Friday

    Time Temperature Precipitation Wind Pressure Humidity
    00:00 +12°C° 0 mm 0 mps 601 mmHg 69%
    01:00 +12°C° 0 mm 0 mps 601 mmHg 69%
    02:00 +12°C° 0 mm 0 mps 600 mmHg 68%
    03:00 +12°C° 0 mm 1 mps 600 mmHg 68%
    04:00 +12°C° 0 mm 1 mps 600 mmHg 68%
    05:00 +11°C° 0 mm 1 mps 600 mmHg 68%
    06:00 +13°C° 0 mm 1 mps 601 mmHg 61%
    07:00 +15°C° 0 mm 1 mps 602 mmHg 54%
    08:00 +18°C° 0 mm 1 mps 603 mmHg 47%
    09:00 +19°C° 0 mm 1 mps 603 mmHg 41%
    10:00 +20°C° 0 mm 2 mps 603 mmHg 36%
    11:00 +21°C° 0 mm 2 mps 604 mmHg 30%
    12:00 +22°C° 0 mm 3 mps 603 mmHg 27%
    13:00 +22°C° 0 mm 3 mps 603 mmHg 25%
    14:00 +23°C° 0 mm 4 mps 602 mmHg 23%
    15:00 +21°C° 0 mm 3 mps 601 mmHg 27%
    16:00 +19°C° 0 mm 2 mps 601 mmHg 31%
    17:00 +18°C° 0 mm 2 mps 600 mmHg 35%
    18:00 +17°C° 0 mm 2 mps 600 mmHg 44%
    19:00 +16°C° 0 mm 1 mps 600 mmHg 53%
    20:00 +14°C° 0 mm 1 mps 600 mmHg 62%
    21:00 +14°C° 0 mm 1 mps 600 mmHg 66%
    22:00 +12°C° 0 mm 0 mps 600 mmHg 70%
    23:00 +11°C° 0 mm 0 mps 600 mmHg 73%

    14 December, Saturday

    Time Temperature Precipitation Wind Pressure Humidity
    00:00 +11°C° 0 mm 0 mps 599 mmHg 71%
    01:00 +12°C° 0 mm 1 mps 599 mmHg 68%
    02:00 +11°C° 0 mm 1 mps 598 mmHg 66%
    03:00 +11°C° 0 mm 1 mps 598 mmHg 65%
    04:00 +10°C° 0 mm 1 mps 598 mmHg 64%
    05:00 +10°C° 0 mm 1 mps 598 mmHg 63%
    06:00 +12°C° 0 mm 1 mps 599 mmHg 56%
    07:00 +14°C° 0 mm 1 mps 600 mmHg 49%
    08:00 +16°C° 0 mm 1 mps 601 mmHg 41%
    09:00 +19°C° 0 mm 1 mps 601 mmHg 36%
    10:00 +18°C° 0 mm 0 mps 602 mmHg 30%
    11:00 +20°C° 0 mm 0 mps 602 mmHg 24%
    12:00 +21°C° 0 mm 0 mps 602 mmHg 22%
    13:00 +24°C° 0 mm 1 mps 601 mmHg 19%
    14:00 +25°C° 0 mm 1 mps 601 mmHg 17%
    15:00 +23°C° 0 mm 1 mps 600 mmHg 21%
    16:00 +21°C° 0 mm 1 mps 600 mmHg 25%
    17:00 +19°C° 0 mm 1 mps 599 mmHg 29%
    18:00 +18°C° 0 mm 1 mps 599 mmHg 34%
    19:00 +16°C° 0 mm 1 mps 599 mmHg 39%
    20:00 +14°C° 0 mm 0 mps 599 mmHg 44%
    21:00 +15°C° 0 mm 1 mps 599 mmHg 45%
    22:00 +14°C° 0 mm 1 mps 599 mmHg 46%
    23:00 +14°C° 0 mm 1 mps 599 mmHg 47%

    15 December, Sunday

    Time Temperature Precipitation Wind Pressure Humidity
    00:00 +13°C° 0 mm 1 mps 598 mmHg 47%
    01:00 +13°C° 0 mm 1 mps 598 mmHg 47%
    02:00 +12°C° 0 mm 1 mps 598 mmHg 47%
    03:00 +12°C° 0 mm 1 mps 598 mmHg 51%
    04:00 +11°C° 0 mm 1 mps 597 mmHg 55%
    05:00 +11°C° 0 mm 1 mps 597 mmHg 59%
    06:00 +13°C° 0 mm 1 mps 599 mmHg 56%
    07:00 +15°C° 0 mm 1 mps 600 mmHg 52%
    08:00 +16°C° 0 mm 1 mps 601 mmHg 48%
    09:00 +19°C° 0 mm 1 mps 601 mmHg 42%
    10:00 +21°C° 0 mm 1 mps 602 mmHg 36%
    11:00 +23°C° 0 mm 1 mps 602 mmHg 29%
    12:00 +24°C° 0 mm 1 mps 602 mmHg 27%
    13:00 +25°C° 0 mm 1 mps 601 mmHg 25%
    14:00 +25°C° 0 mm 2 mps 601 mmHg 22%
    15:00 +24°C° 0 mm 2 mps 601 mmHg 26%
    16:00 +21°C° 0 mm 2 mps 600 mmHg 30%
    17:00 +19°C° 0 mm 2 mps 600 mmHg 35%
    18:00 +20°C° 0 mm 1 mps 600 mmHg 38%
    19:00 +19°C° 0 mm 1 mps 600 mmHg 42%
    20:00 +18°C° 0 mm 1 mps 600 mmHg 45%
    21:00 +16°C° 0 mm 1 mps 600 mmHg 48%
    22:00 +15°C° 0 mm 1 mps 600 mmHg 50%
    23:00 +15°C° 0 mm 1 mps 599 mmHg 53%
    Show more